Biloxi, MS

7:55 PM CST on November 18, 2017 (GMT -0600)
Keesler Air Force Base

Weather History for KBIX - January, 2012

Change the Weather History Date:

Tuesday, January 10, 2012

  Actual Average Record
Temperature  
Mean Temperature 62 °F -  
Max Temperature 68 °F 56 °F 74 °F (1949)
Min Temperature 57 °F 39 °F 16 °F (1962)
Degree Days  
Heating Degree Days 2    
Growing Degree Days 12 (Base 50)    
Moisture  
Dew Point 65 °F    
Average Humidity 98    
Maximum Humidity 100    
Minimum Humidity 78    
Precipitation  
Precipitation 0.00 in - - ()
Sea Level Pressure  
Sea Level Pressure 29.87 in    
Wind  
Wind Speed 9 mph (SSE)    
Max Wind Speed 22 mph    
Max Gust Speed 31 mph    
Visibility 10 miles    
Events Rain    
Averages and records for this station are not official NWS values.
T = Trace of Precipitation, MM = Missing Value Source: NWS Daily Summary

Daily Weather History Graph

Daily Weather History Graph

Search for Another Location

Airport or City:

Trip Planner

Search our weather history database for the weather conditions in past years. The results will help you decide how hot, cold, wet, or windy it might be!

Date:

Astronomy

Jan. 10, 2012 Rise Set
Actual Time 6:53 AM CST 5:12 PM CST
Civil Twilight 6:27 AM CST 5:38 PM CST
Nautical Twilight 5:57 AM CST 6:08 PM CST
Astronomical Twilight 5:28 AM CST 6:37 PM CST
Moon 6:55 PM CST (1/10) 7:39 AM CST (1/10)
Length of Visible Light 11h 11m
Length of Day
10h 19m
Full, 98% of the Moon is Illuminated
Jan 10
Full
Jan 16
Last Quarter
Jan 23
New
Jan 30
First Quarter
Feb 7
Full

Hourly Weather History & Observations

Time (CST) Temp. Dew Point Humidity Pressure Visibility Wind Dir Wind Speed Gust Speed Precip Events Conditions
12:41 AM 66.2 °F 66.2 °F 100% 30.01 in 10.0 mi ESE 6.9 mph - N/A   Overcast
12:55 AM 66.2 °F 66.2 °F 100% 30.00 in 10.0 mi ESE 6.9 mph - N/A   Overcast
1:55 AM 67.3 °F 67.3 °F 100% 30.00 in 10.0 mi ESE 5.8 mph - N/A   Overcast
2:40 AM 68.0 °F 68.0 °F 100% 29.99 in 10.0 mi ESE 6.9 mph - N/A   Mostly Cloudy
2:41 AM 68.0 °F 68.0 °F 100% 29.99 in 10.0 mi ESE 6.9 mph - N/A Rain Light Rain
2:55 AM 67.1 °F 67.1 °F 100% 29.98 in 10.0 mi ESE 8.1 mph - 0.00 in Rain Light Rain
2:58 AM 68.0 °F 68.0 °F 100% 29.99 in 10.0 mi SE 6.9 mph - N/A   Light Drizzle
2:59 AM 68.0 °F 68.0 °F 100% 29.99 in 10.0 mi SE 6.9 mph - N/A   Mostly Cloudy
3:00 AM 68.0 °F 68.0 °F 100% 29.99 in 10.0 mi SE 6.9 mph - N/A   Mostly Cloudy
3:05 AM 68.0 °F 68.0 °F 100% 29.98 in 10.0 mi SE 6.9 mph - N/A   Mostly Cloudy
3:10 AM 68.0 °F 68.0 °F 100% 29.98 in 10.0 mi SE 8.1 mph - N/A   Mostly Cloudy
3:11 AM 68.0 °F 68.0 °F 100% 29.98 in 10.0 mi SE 9.2 mph - N/A   Mostly Cloudy
3:15 AM 68.0 °F 68.0 °F 100% 29.98 in 10.0 mi SE 10.4 mph - N/A   Mostly Cloudy
3:55 AM 68.0 °F 68.0 °F 100% 29.95 in 10.0 mi SE 12.7 mph 18.4 mph 0.00 in   Mostly Cloudy
4:47 AM 68.0 °F 68.0 °F 100% 29.95 in 10.0 mi SSE 12.7 mph - N/A   Overcast
4:55 AM 67.8 °F 67.8 °F 100% 29.94 in 10.0 mi SE 12.7 mph - N/A   Overcast
5:01 AM 68.0 °F 68.0 °F 100% 29.94 in 10.0 mi SSE 12.7 mph - N/A   Overcast
5:32 AM 68.0 °F 68.0 °F 100% 29.95 in 10.0 mi SSE 11.5 mph - N/A   Mostly Cloudy
5:36 AM 68.0 °F 68.0 °F 100% 29.94 in 10.0 mi SE 13.8 mph 20.7 mph N/A   Mostly Cloudy
5:49 AM 68.0 °F 68.0 °F 100% 29.95 in 10.0 mi SSE 10.4 mph 19.6 mph N/A   Mostly Cloudy
5:55 AM 67.6 °F 67.6 °F 100% 29.95 in 10.0 mi SSE 11.5 mph 17.3 mph N/A   Mostly Cloudy
6:15 AM 68.0 °F 68.0 °F 100% 29.95 in 10.0 mi SE 10.4 mph - N/A   Mostly Cloudy
6:41 AM 66.2 °F 66.2 °F 100% 29.95 in 10.0 mi SSE 10.4 mph 17.3 mph N/A   Mostly Cloudy
6:55 AM 66.4 °F 66.4 °F 100% 29.96 in 10.0 mi SSE 11.5 mph - N/A   Overcast
7:41 AM 66.2 °F 66.2 °F 100% 29.94 in 10.0 mi SSE 10.4 mph - N/A   Mostly Cloudy
7:59 AM 66.2 °F 66.2 °F 100% 29.92 in 10.0 mi SE 10.4 mph 20.7 mph N/A   Mostly Cloudy
8:27 AM 66.2 °F 66.2 °F 100% 29.94 in 10.0 mi SSE 11.5 mph - N/A   Scattered Clouds
8:55 AM 66.0 °F 66.0 °F 100% 29.94 in 10.0 mi SSE 10.4 mph - N/A   Overcast
9:47 AM 66.2 °F 66.2 °F 100% 29.95 in 10.0 mi SSE 11.5 mph - N/A   Mostly Cloudy
9:55 AM 66.6 °F 66.6 °F 100% 29.96 in 10.0 mi SSE 12.7 mph - N/A   Mostly Cloudy
10:04 AM 66.2 °F 66.2 °F 100% 29.95 in 10.0 mi SSE 11.5 mph 18.4 mph N/A   Mostly Cloudy
10:55 AM 66.2 °F 66.2 °F 100% 29.93 in 10.0 mi SSE 8.1 mph - N/A   Mostly Cloudy
11:55 AM 65.8 °F 65.8 °F 100% 29.86 in 10.0 mi South 10.4 mph 20.7 mph N/A   Overcast
12:55 PM 64.9 °F 63.3 °F 94% 29.83 in 10.0 mi South 15.0 mph 24.2 mph N/A   Mostly Cloudy
1:55 PM 65.3 °F 61.5 °F 88% 29.82 in 10.0 mi SSE 13.8 mph - N/A   Mostly Cloudy
2:55 PM 65.7 °F 60.4 °F 83% 29.81 in 10.0 mi SSE 13.8 mph 20.7 mph N/A   Mostly Cloudy
3:55 PM 66.6 °F 59.7 °F 79% 29.79 in 10.0 mi SE 12.7 mph - N/A   Overcast
4:45 PM 66.2 °F 59.0 °F 78% 29.80 in 10.0 mi SE 12.7 mph - N/A Rain Light Rain
4:55 PM 66.6 °F 60.6 °F 81% 29.80 in 10.0 mi SE 8.1 mph 19.6 mph 0.00 in Rain Light Rain
5:01 PM 66.2 °F 60.8 °F 83% 29.80 in 10.0 mi SSE 8.1 mph - N/A   Overcast
5:55 PM 65.7 °F 61.7 °F 87% 29.80 in 10.0 mi South 3.5 mph - 0.00 in   Overcast
6:55 PM 65.1 °F 62.4 °F 91% 29.79 in 10.0 mi SSE 5.8 mph - N/A   Overcast
7:19 PM 64.4 °F 62.6 °F 94% 29.79 in 10.0 mi SE 3.5 mph - N/A   Overcast
7:33 PM 64.4 °F 64.4 °F 100% 29.77 in 10.0 mi Variable 6.9 mph - N/A   Mostly Cloudy
7:55 PM 65.7 °F 64.8 °F 97% 29.78 in 10.0 mi SSE 8.1 mph - N/A   Overcast
8:33 PM 64.4 °F 64.4 °F 100% 29.77 in 10.0 mi South 8.1 mph - N/A   Overcast
8:43 PM 64.4 °F 64.4 °F 100% 29.76 in 10.0 mi South 8.1 mph - N/A   Mostly Cloudy
8:55 PM 64.0 °F 64.0 °F 100% 29.76 in 10.0 mi South 4.6 mph - N/A   Overcast
9:04 PM 64.4 °F 64.4 °F 100% 29.76 in 10.0 mi South 5.8 mph - N/A   Overcast
9:10 PM 64.4 °F 64.4 °F 100% 29.76 in 10.0 mi South 5.8 mph - N/A   Overcast
9:55 PM 62.4 °F 62.4 °F 100% 29.74 in 10.0 mi South 4.6 mph - N/A   Partly Cloudy
10:07 PM 62.6 °F 62.6 °F 100% 29.74 in 10.0 mi SW 8.1 mph - N/A   Partly Cloudy
10:14 PM 62.6 °F 62.6 °F 100% 29.74 in 10.0 mi SW 8.1 mph - N/A   Mostly Cloudy
10:16 PM 62.6 °F 62.6 °F 100% 29.74 in 10.0 mi SW 9.2 mph - N/A   Mostly Cloudy
10:17 PM 62.6 °F 62.6 °F 100% 29.73 in 10.0 mi SW 9.2 mph - N/A   Mostly Cloudy
10:55 PM 60.1 °F 60.1 °F 100% 29.73 in 4.0 mi WSW 19.6 mph 31.1 mph N/A   Overcast
10:58 PM 59.0 °F 59.0 °F 100% 29.73 in 5.0 mi WSW 19.6 mph 31.1 mph N/A   Overcast
10:59 PM 59.0 °F 59.0 °F 100% 29.73 in 6.0 mi WSW 17.3 mph 29.9 mph N/A   Overcast
11:18 PM 57.2 °F 57.2 °F 100% 29.73 in 10.0 mi West 16.1 mph 27.6 mph N/A   Overcast
11:20 PM 57.2 °F 57.2 °F 100% 29.73 in 10.0 mi WSW 21.9 mph 28.8 mph N/A   Overcast
11:36 PM 57.2 °F 57.2 °F 100% 29.73 in 10.0 mi WSW 16.1 mph 27.6 mph N/A   Overcast
11:55 PM 57.0 °F 57.0 °F 100% 29.73 in 10.0 mi West 11.5 mph 25.3 mph N/A   Overcast